Tracking 19212 objects as of 17-Jul-2018
HD Live streaming from Space Station
objects crossing your sky now

FENGYUN 1C DEB

Track FENGYUN 1C DEB now!
10-day predictions


NORAD ID: 30731
Int'l Code: 1999-025ASR
Perigee: 817.6 km
Apogee: 847.5 km
Inclination: 99.0 °
Period: 101.4 minutes
Semi major axis: 7203 km
RCS: 0.0198 m2 (small)
Launch date: May 10, 1999
Source: People's Republic of China (PRC)
Launch site: Taiyaun Space Center, China (TSC)

Note: This is SATELLITE DEBRIS
aabbcc
Your satellite tracking list
Your tracking list is empty




NASA's NSSDC Master Catalog

Two Line Element Set (TLE):
1 30731U 99025ASR 18198.43889639  .00000693  00000-0  34684-3 0  9992
2 30731  98.9627 190.3419 0020694 135.1298  25.2877 14.19984555588210
Source of the keplerian elements: AFSPC